Location: Fernhill
(41.0167°S, 175.6333°E)
Time: 14:38:23
(UTC+00:00)

Meteor 2-6 Rocket - Pass Details

Date: 23 February 2026
Orbit: 804 x 913 km, 81.3° (Epoch: 7 March)

Event Time Altitude Azimuth Distance (km) Brightness Sun altitude
Exits shadow 10:12:01 45° 300° (WNW) 1,199 4.9 -30.0°
Maximum altitude 10:13:20 55° 257° (WSW) 1,079 4.9 -30.2°
Drops below altitude 10° 10:19:13 10° 179° (S) 2,622 7.3 -30.9°
Sets 10:21:48 0° 174° (S) 3,578 8.1 -31.2°
